SCP
-0 -0 -0 -0 -0 -0 -0 0 0 -0 -0 0 0 0 0 0 0 0 0 0 0 0 0 0 0 0 0 0 0 0 0 0 0 0 0 0 0 0 0 0 0 0 0 0
-0 -0 -0 -0 -0 -0 0 0 0 -0 0 0 0 0 0 0 0 0 0 0 0 0 0 0 0 0 0 0 0 0 0 0 0 0 0 0 0 0 0 0 0 0 0 0
-0 -0 -0 -0 -0 0 0 0 0 0 0 0 0 0 0 0 0 0 0 0 0 0 0 0 0 0 0 0 0 0 0 0 0 0 0 0 0 0 0 0 0 0 0 0
0 0 -0 -0 -0 0 0 0 0 0 0 0 0 0 0 0 0 0 0 0 0 0 0 0 0 0 0 0 0 0 0 0 0 0 0 0 0 0 0 0 0 0 0 0
0 0 0 0 -0 0 0 0 0 0 0 0 0 0 0 0 0 0 0 0 0 0 0 0 0 0 0 0 0 0 0 0 0 0 0 0 0 0 0 0 1 1 1 1
0 0 0 0 0 0 0 0 0 0 0 0 0 0 0 0 0 0 0 0 0 0 0 0 0 0 0 0 0 0 0 0 0 0 0 0 0 0 0 0 1 0 0 0
0 0 0 0 0 0 0 0 0 0 0 0 0 0 0 0 0 0 0 0 0 0 0 0 0 0 0 0 0 0 0 0 0 0 0 0 0 0 0 1 1 1 1 1
0 0 0 0 0 0 0 0 0 0 0 0 0 0 0 0 0 0 0 0 0 0 0 0 0 0 0 0 0 0 0 0 0 0 0 0 0 0 0 0 1 0 1 0
0 0 0 0 0 0 0 0 0 0 0 0 0 0 0 0 0 0 0 0 0 0 0 0 0 0 0 0 0 0 0 0 0 0 0 0 0 0 0 0 0 0 1 0
0 0 0 0 0 0 0 0 0 0 0 0 0 0 0 0 0 0 0 0 0 0 0 0 0 0 0 0 0 0 -0 0 0 0 0 0 0 0 0 0 0 0 1 1
0 0 0 0 0 0 0 0 0 0 0 0 0 0 0 0 0 0 0 0 0 0 0 0 0 0 0 0 0 0 0 0 0 0 0 0 0 0 0 0 0 0 0 1
0 0 0 0 0 0 0 0 0 0 0 0 0 0 0 0 0 0 0 0 0 0 0 0 0 0 0 0 0 0 0 0 0 0 0 0 0 0 0 0 0 0 0 0
0 0 0 0 0 0 0 0 0 0 0 0 0 0 0 0 0 0 0 0 0 0 0 0 -0 0 0 0 0 0 0 0 0 0 0 0 0 0 0 0 0 0 0 0
0 0 0 0 0 0 0 0 0 0 0 0 0 0 0 0 0 0 0 0 0 0 0 0 0 0 0 0 0 0 0 0 0 0 0 0 0 0 0 0 0 0 0 0
0 0 0 0 0 0 0 0 0 0 0 0 0 0 0 0 0 0 0 0 0 0 0 0 0 0 0 0 0 0 0 0 0 0 0 0 0 0 0 0 0 0 0 0
0 0 0 0 0 0 0 0 0 0 0 0 0 0 0 0 0 0 0 0 0 0 0 0 0 0 0 0 0 0 0 0 0 0 0 0 0 0 0 0 0 0 0 0
0 0 0 0 0 0 0 0 0 0 0 0 0 0 0 0 0 0 0 0 0 0 0 0 0 0 0 0 0 0 0 0 0 0 -0 0 0 0 0 -0 0 0 0 0
0 0 0 0 0 0 0 0 0 0 0 0 0 0 0 0 0 0 0 0 0 0 0 0 0 0 0 0 0 0 0 0 0 -0 0 0 0 -0 0 0 0 0 0 0
0 0 0 0 0 0 0 0 0 0 0 0 0 0 0 0 0 0 0 0 0 0 0 0 0 0 0 0 0 0 0 0 -0 0 0 -0 -0 -0 -0 0 0 0 0 0
0 0 0 0 0 0 0 0 0 0 0 0 0 0 0 0 0 0 0 0 0 0 0 0 0 0 0 0 -0 0 0 0 0 0 0 0 0 -0 -0 -0 0 0 0 0
0 0 0 0 0 0 0 0 0 0 0 0 0 0 0 0 0 0 0 0 0 0 0 0 0 0 0 -0 -0 0 0 0 -0 -0 -0 -0 -0 -0 0 0 0 0 0 0
0 0 0 0 0 0 0 0 0 0 0 0 0 0 0 0 0 0 0 0 0 0 0 0 0 0 0 0 0 0 0 0 0 0 -0 -0 0 0 0 0 0 0 0 0
0 0 0 0 0 0 0 0 0 0 0 0 0 0 0 0 0 0 0 0 0 0 0 0 0 0 0 0 0 0 0 0 0 0 0 0 0 0 0 0 0 0 0 0
0 0 0 0 0 0 0 0 0 0 0 0 0 0 0 0 0 0 0 0 0 0 0 0 0 0 0 0 0 0 0 0 0 0 0 0 0 0 0 0 0 0 0 0
0 0 0 0 0 0 0 0 0 0 0 0 0 0 0 0 0 0 0 0 0 0 0 0 0 0 0 0 0 0 0 0 0 0 0 0 0 0 0 0 0 0 0 0
0 0 0 0 0 0 0 0 0 0 0 0 0 0 0 0 0 0 0 0 0 0 -0 0 0 0 0 0 0 0 0 0 0 0 0 0 0 0 0 0 0 0 0 0
0 0 0 0 0 0 0 0 0 0 -0 0 0 0 0 0 0 0 0 0 0 0 0 0 0 0 0 0 0 0 0 0 0 0 0 0 0 0 0 0 0 0 0 0
Wind_Speed_500mb
59 58 64 66 63 52 19 9 6 11 13 6 5 3 9 8 15 33 6 7 6 7 3 4 2 2 7 20 6 5 4 7 13 27 8 10 4 4 12 10 9 1 7 9
57 56 60 61 56 55 34 9 9 5 15 5 7 12 10 8 6 5 3 4 2 1 4 5 4 1 8 14 9 6 8 1 4 14 13 9 10 6 9 9 6 11 11 9
53 55 55 57 50 42 30 10 7 13 7 15 3 9 11 13 13 9 10 7 10 7 8 8 4 6 7 24 9 7 8 6 10 12 8 4 7 11 7 8 8 10 11 16
47 50 52 52 47 31 22 16 6 10 7 11 13 5 10 9 10 9 21 9 8 5 7 7 8 3 11 12 13 4 8 6 5 8 18 15 13 11 14 7 2 8 11 15
42 45 49 48 45 31 21 10 11 12 7 19 12 12 10 5 6 4 4 4 3 7 9 11 9 7 8 13 7 4 4 7 8 12 9 25 14 23 12 8 10 11 14 9
37 40 43 45 42 37 18 18 10 8 9 12 5 5 11 13 24 4 5 4 2 6 7 12 15 20 2 7 6 1 5 9 6 10 5 5 15 16 15 4 9 11 7 10
31 34 36 38 36 32 27 21 14 9 7 4 4 10 17 17 18 5 17 18 7 4 19 2 8 12 30 21 23 6 6 7 6 6 2 7 14 7 5 13 8 12 20 13
26 28 31 31 30 25 19 13 11 7 4 8 14 20 11 20 12 17 8 18 22 20 5 9 11 10 5 12 6 17 8 10 8 8 6 5 8 12 5 5 5 12 23 20
21 23 26 27 27 21 13 2 9 5 5 9 14 12 14 5 9 13 20 19 27 5 11 9 6 1 1 8 17 6 10 14 9 5 10 13 16 9 12 3 9 29 18 28
19 20 24 24 24 19 12 4 6 5 8 13 6 6 8 13 11 4 9 20 17 19 7 7 4 3 2 1 2 8 8 8 7 3 4 9 7 10 15 9 13 25 31 46
19 19 21 22 22 18 11 8 3 8 9 37 33 24 21 24 6 3 16 6 10 8 8 6 5 4 4 1 4 2 6 7 2 3 5 5 10 12 13 11 10 17 22 42
20 18 19 20 21 19 14 9 16 21 24 39 54 52 40 44 33 26 10 5 3 7 9 2 5 3 1 3 4 4 3 10 9 12 10 8 7 7 14 19 24 18 16 19
22 19 19 19 20 19 17 16 15 19 24 46 28 25 14 12 10 10 11 3 4 6 6 15 5 5 8 7 9 2 3 6 4 4 5 3 6 22 20 25 22 21 25 32
24 21 19 19 20 20 19 16 14 12 9 8 11 14 27 14 11 13 22 22 11 6 13 7 6 5 15 6 3 5 7 10 7 4 5 13 17 31 33 28 23 21 19 19
24 20 20 19 20 20 20 17 16 18 9 7 25 36 16 5 2 17 21 23 12 7 3 3 5 10 9 2 4 6 16 12 9 10 31 18 37 36 34 30 25 21 20 21
26 22 20 19 20 17 14 6 4 17 6 9 7 14 11 4 5 9 25 25 20 4 4 7 7 7 8 6 6 13 22 18 19 7 34 16 40 36 28 25 21 17 21 23
26 22 22 21 22 18 14 4 10 13 4 7 13 17 6 7 9 10 16 16 16 12 3 7 6 7 12 6 6 11 8 17 16 24 42 31 46 41 33 22 17 8 8 10
27 24 23 23 23 22 20 21 16 14 10 9 4 10 14 2 5 6 15 13 20 11 9 7 6 8 4 3 15 17 18 23 42 49 30 28 41 42 31 19 14 8 7 7
27 24 23 20 18 10 6 13 13 25 20 7 6 4 7 7 2 5 4 5 1 6 6 8 8 0 6 14 18 18 30 46 52 50 29 37 49 45 36 24 18 16 20 18
25 18 9 8 5 9 9 8 7 14 15 15 11 8 7 6 4 3 2 3 2 0 8 7 5 8 28 29 22 25 51 46 49 50 30 42 53 47 36 34 29 25 24 23
20 13 8 3 9 13 7 7 9 10 7 15 16 35 13 6 2 5 1 3 0 2 10 8 4 7 24 48 38 42 59 49 52 42 29 32 40 43 43 42 36 32 30 27
20 10 6 10 10 9 4 6 5 8 9 12 13 18 27 13 8 2 3 4 4 9 1 4 5 10 14 16 39 50 68 54 49 41 33 37 44 40 36 41 35 37 27 18
21 8 7 10 9 2 10 11 7 5 9 11 12 4 15 10 6 9 6 6 7 10 3 6 9 17 25 21 28 43 53 52 48 44 41 36 42 43 37 39 40 30 20 17
13 12 5 9 8 9 10 10 8 16 3 20 11 9 5 5 5 7 7 6 0 4 3 8 7 21 17 14 29 40 44 40 35 31 33 33 30 25 33 32 31 28 21 18
9 9 10 12 23 18 12 24 24 33 25 4 13 13 11 7 5 3 3 3 6 7 7 6 22 8 10 19 24 28 36 33 26 25 31 28 23 26 30 35 33 21 14 19
8 13 6 12 4 12 18 34 42 5 12 13 2 6 5 2 6 4 6 2 7 6 5 6 14 10 9 10 16 25 23 19 29 29 27 23 25 25 27 35 30 18 15 16
10 10 18 25 29 27 24 14 14 23 20 7 9 6 7 7 3 5 7 7 4 9 9 11 14 15 8 7 19 25 26 26 23 20 17 15 14 25 36 37 27 23 21 19
Wind_Direction_500mb
357 359 1 358 359 4 9 50 62 143 165 52 27 160 207 283 277 299 323 102 97 126 150 154 163 63 215 345 282 354 201 170 211 229 273 304 178 229 146 126 251 121 157 267
356 359 2 2 2 7 11 36 30 113 194 59 327 298 285 251 297 226 204 106 76 346 105 66 235 275 277 4 333 346 188 351 13 351 352 357 68 339 124 117 76 186 144 256
354 357 2 5 4 6 17 18 29 16 109 75 35 329 308 332 12 65 76 70 77 68 51 20 337 315 306 339 329 45 128 101 150 187 224 207 5 329 103 132 122 177 214 166
351 355 1 6 9 13 20 26 45 20 343 333 350 299 345 330 342 44 35 46 85 106 42 27 10 300 318 321 326 46 102 110 107 57 108 87 59 2 4 95 21 152 224 167
349 353 359 6 12 21 36 38 11 357 330 318 348 5 333 294 311 94 333 93 133 131 155 181 245 186 201 237 307 60 29 160 129 49 84 74 61 21 18 38 89 58 75 80
343 350 355 2 12 20 43 36 14 339 346 346 33 321 309 304 309 320 46 182 72 309 258 221 256 262 312 313 304 65 87 121 83 181 297 50 30 342 342 124 64 146 190 169
333 344 351 358 6 18 21 24 26 11 295 359 342 305 317 319 331 300 6 34 113 319 308 229 113 59 82 56 28 82 119 83 68 146 83 75 232 295 284 74 76 94 96 134
320 334 343 352 359 7 12 24 28 16 299 282 312 317 297 330 9 27 32 23 345 313 15 56 28 344 49 346 47 3 37 118 67 117 77 344 323 265 183 104 291 190 148 150
305 322 335 342 349 357 360 340 15 358 315 244 329 316 320 316 330 351 13 5 9 27 67 60 84 170 275 324 340 53 53 68 107 119 126 188 225 221 210 73 280 203 188 163
289 304 324 333 341 347 349 266 308 323 282 279 284 302 301 341 346 275 321 339 1 22 54 65 109 254 274 211 346 340 3 5 98 81 162 281 250 175 132 107 236 178 178 163
272 290 309 322 332 337 337 234 278 308 277 291 277 261 278 306 314 356 321 10 2 49 66 109 210 184 241 292 244 198 152 125 166 87 69 271 174 111 162 213 160 182 188 189
254 274 296 312 322 324 323 253 261 288 284 277 293 282 270 282 284 272 290 283 259 177 94 124 126 179 82 171 221 343 226 176 183 166 215 274 285 235 217 167 149 153 158 178
243 260 281 298 310 312 310 297 286 286 294 299 281 264 237 294 281 254 263 308 292 265 206 150 159 182 134 173 240 230 246 175 122 74 227 258 106 141 152 174 172 166 172 176
237 250 267 287 302 303 305 294 283 294 299 294 288 250 250 278 261 242 247 259 299 336 187 154 148 175 189 204 180 177 207 138 149 300 348 110 132 138 137 133 141 151 153 163
227 242 258 279 295 296 300 289 254 238 243 279 291 302 247 244 300 228 229 226 257 297 194 122 227 153 140 132 112 255 188 178 161 214 194 174 179 157 149 147 148 156 171 184
223 238 252 275 289 291 301 254 251 199 243 303 310 311 273 298 307 239 226 241 261 221 256 248 238 186 168 134 203 262 220 212 228 211 184 155 171 173 170 156 146 161 191 200
218 237 249 270 278 274 249 252 184 184 255 267 302 301 269 275 277 230 217 224 255 269 253 236 235 198 174 127 182 272 253 230 210 189 170 144 165 170 170 183 169 181 212 211
210 237 250 266 274 276 263 211 197 218 275 261 261 274 313 298 242 225 224 243 246 230 232 235 220 154 148 223 244 255 265 208 169 173 179 181 178 164 164 170 145 133 103 93
212 227 252 270 260 242 189 172 200 215 225 264 214 224 260 337 255 262 217 219 211 220 190 230 157 259 214 225 243 250 199 177 177 174 182 181 178 182 176 178 191 197 195 195
211 222 226 229 200 176 164 183 207 208 216 227 238 231 265 309 338 329 343 10 194 260 249 160 136 237 233 241 249 237 180 182 180 182 192 186 186 180 192 214 212 211 208 211
194 193 224 240 177 177 216 220 203 191 241 218 230 217 220 251 170 235 18 200 140 162 258 143 247 272 237 235 239 205 190 193 196 202 209 219 211 200 212 210 212 214 221 222
180 200 223 169 191 209 204 228 263 197 229 206 196 217 205 218 217 80 306 75 8 248 292 109 245 256 274 218 207 207 202 201 200 206 216 206 205 213 218 211 217 208 205 222
178 220 211 193 186 87 203 209 235 234 219 202 181 169 166 159 137 36 7 66 283 318 360 237 228 261 264 278 224 209 202 206 206 217 219 211 209 222 220 207 205 205 216 222
197 200 234 191 211 232 202 208 202 229 228 333 206 127 116 104 94 153 190 229 29 280 276 247 259 293 271 211 177 181 182 190 195 193 189 192 200 197 196 209 209 213 214 224
219 226 215 210 230 251 265 256 260 277 277 289 119 78 72 5 96 17 21 303 261 226 239 259 325 184 145 167 174 175 174 178 184 187 181 181 180 186 199 208 211 208 223 228
231 234 265 266 271 279 283 273 270 253 178 147 112 115 86 120 164 155 232 224 232 265 238 68 87 102 110 139 182 193 196 196 168 172 180 189 200 211 222 208 201 219 243 250
234 246 254 271 283 271 303 277 243 168 154 74 298 145 172 114 90 258 191 215 241 206 147 127 125 126 128 131 154 156 158 165 174 186 197 213 221 223 211 204 216 228 249 255
Wind_Speed_850mb
59 58 64 66 63 52 19 9 6 11 13 6 5 3 9 8 15 33 6 7 6 7 3 4 2 2 7 20 6 5 4 7 13 27 8 10 4 4 12 10 9 1 7 9
57 56 60 61 56 55 34 9 9 5 15 5 7 12 10 8 6 5 3 4 2 1 4 5 4 1 8 14 9 6 8 1 4 14 13 9 10 6 9 9 6 11 11 9
53 55 55 57 50 42 30 10 7 13 7 15 3 9 11 13 13 9 10 7 10 7 8 8 4 6 7 24 9 7 8 6 10 12 8 4 7 11 7 8 8 10 11 16
47 50 52 52 47 31 22 16 6 10 7 11 13 5 10 9 10 9 21 9 8 5 7 7 8 3 11 12 13 4 8 6 5 8 18 15 13 11 14 7 2 8 11 15
42 45 49 48 45 31 21 10 11 12 7 19 12 12 10 5 6 4 4 4 3 7 9 11 9 7 8 13 7 4 4 7 8 12 9 25 14 23 12 8 10 11 14 9
37 40 43 45 42 37 18 18 10 8 9 12 5 5 11 13 24 4 5 4 2 6 7 12 15 20 2 7 6 1 5 9 6 10 5 5 15 16 15 4 9 11 7 10
31 34 36 38 36 32 27 21 14 9 7 4 4 10 17 17 18 5 17 18 7 4 19 2 8 12 30 21 23 6 6 7 6 6 2 7 14 7 5 13 8 12 20 13
26 28 31 31 30 25 19 13 11 7 4 8 14 20 11 20 12 17 8 18 22 20 5 9 11 10 5 12 6 17 8 10 8 8 6 5 8 12 5 5 5 12 23 20
21 23 26 27 27 21 13 2 9 5 5 9 14 12 14 5 9 13 20 19 27 5 11 9 6 1 1 8 17 6 10 14 9 5 10 13 16 9 12 3 9 29 18 28
19 20 24 24 24 19 12 4 6 5 8 13 6 6 8 13 11 4 9 20 17 19 7 7 4 3 2 1 2 8 8 8 7 3 4 9 7 10 15 9 13 25 31 46
19 19 21 22 22 18 11 8 3 8 9 37 33 24 21 24 6 3 16 6 10 8 8 6 5 4 4 1 4 2 6 7 2 3 5 5 10 12 13 11 10 17 22 42
20 18 19 20 21 19 14 9 16 21 24 39 54 52 40 44 33 26 10 5 3 7 9 2 5 3 1 3 4 4 3 10 9 12 10 8 7 7 14 19 24 18 16 19
22 19 19 19 20 19 17 16 15 19 24 46 28 25 14 12 10 10 11 3 4 6 6 15 5 5 8 7 9 2 3 6 4 4 5 3 6 22 20 25 22 21 25 32
24 21 19 19 20 20 19 16 14 12 9 8 11 14 27 14 11 13 22 22 11 6 13 7 6 5 15 6 3 5 7 10 7 4 5 13 17 31 33 28 23 21 19 19
24 20 20 19 20 20 20 17 16 18 9 7 25 36 16 5 2 17 21 23 12 7 3 3 5 10 9 2 4 6 16 12 9 10 31 18 37 36 34 30 25 21 20 21
26 22 20 19 20 17 14 6 4 17 6 9 7 14 11 4 5 9 25 25 20 4 4 7 7 7 8 6 6 13 22 18 19 7 34 16 40 36 28 25 21 17 21 23
26 22 22 21 22 18 14 4 10 13 4 7 13 17 6 7 9 10 16 16 16 12 3 7 6 7 12 6 6 11 8 17 16 24 42 31 46 41 33 22 17 8 8 10
27 24 23 23 23 22 20 21 16 14 10 9 4 10 14 2 5 6 15 13 20 11 9 7 6 8 4 3 15 17 18 23 42 49 30 28 41 42 31 19 14 8 7 7
27 24 23 20 18 10 6 13 13 25 20 7 6 4 7 7 2 5 4 5 1 6 6 8 8 0 6 14 18 18 30 46 52 50 29 37 49 45 36 24 18 16 20 18
25 18 9 8 5 9 9 8 7 14 15 15 11 8 7 6 4 3 2 3 2 0 8 7 5 8 28 29 22 25 51 46 49 50 30 42 53 47 36 34 29 25 24 23
20 13 8 3 9 13 7 7 9 10 7 15 16 35 13 6 2 5 1 3 0 2 10 8 4 7 24 48 38 42 59 49 52 42 29 32 40 43 43 42 36 32 30 27
20 10 6 10 10 9 4 6 5 8 9 12 13 18 27 13 8 2 3 4 4 9 1 4 5 10 14 16 39 50 68 54 49 41 33 37 44 40 36 41 35 37 27 18
21 8 7 10 9 2 10 11 7 5 9 11 12 4 15 10 6 9 6 6 7 10 3 6 9 17 25 21 28 43 53 52 48 44 41 36 42 43 37 39 40 30 20 17
13 12 5 9 8 9 10 10 8 16 3 20 11 9 5 5 5 7 7 6 0 4 3 8 7 21 17 14 29 40 44 40 35 31 33 33 30 25 33 32 31 28 21 18
9 9 10 12 23 18 12 24 24 33 25 4 13 13 11 7 5 3 3 3 6 7 7 6 22 8 10 19 24 28 36 33 26 25 31 28 23 26 30 35 33 21 14 19
8 13 6 12 4 12 18 34 42 5 12 13 2 6 5 2 6 4 6 2 7 6 5 6 14 10 9 10 16 25 23 19 29 29 27 23 25 25 27 35 30 18 15 16
10 10 18 25 29 27 24 14 14 23 20 7 9 6 7 7 3 5 7 7 4 9 9 11 14 15 8 7 19 25 26 26 23 20 17 15 14 25 36 37 27 23 21 19
Wind_Direction_850mb
357 359 1 358 359 4 9 50 62 143 165 52 27 160 207 283 277 299 323 102 97 126 150 154 163 63 215 345 282 354 201 170 211 229 273 304 178 229 146 126 251 121 157 267
356 359 2 2 2 7 11 36 30 113 194 59 327 298 285 251 297 226 204 106 76 346 105 66 235 275 277 4 333 346 188 351 13 351 352 357 68 339 124 117 76 186 144 256
354 357 2 5 4 6 17 18 29 16 109 75 35 329 308 332 12 65 76 70 77 68 51 20 337 315 306 339 329 45 128 101 150 187 224 207 5 329 103 132 122 177 214 166
351 355 1 6 9 13 20 26 45 20 343 333 350 299 345 330 342 44 35 46 85 106 42 27 10 300 318 321 326 46 102 110 107 57 108 87 59 2 4 95 21 152 224 167
349 353 359 6 12 21 36 38 11 357 330 318 348 5 333 294 311 94 333 93 133 131 155 181 245 186 201 237 307 60 29 160 129 49 84 74 61 21 18 38 89 58 75 80
343 350 355 2 12 20 43 36 14 339 346 346 33 321 309 304 309 320 46 182 72 309 258 221 256 262 312 313 304 65 87 121 83 181 297 50 30 342 342 124 64 146 190 169
333 344 351 358 6 18 21 24 26 11 295 359 342 305 317 319 331 300 6 34 113 319 308 229 113 59 82 56 28 82 119 83 68 146 83 75 232 295 284 74 76 94 96 134
320 334 343 352 359 7 12 24 28 16 299 282 312 317 297 330 9 27 32 23 345 313 15 56 28 344 49 346 47 3 37 118 67 117 77 344 323 265 183 104 291 190 148 150
305 322 335 342 349 357 360 340 15 358 315 244 329 316 320 316 330 351 13 5 9 27 67 60 84 170 275 324 340 53 53 68 107 119 126 188 225 221 210 73 280 203 188 163
289 304 324 333 341 347 349 266 308 323 282 279 284 302 301 341 346 275 321 339 1 22 54 65 109 254 274 211 346 340 3 5 98 81 162 281 250 175 132 107 236 178 178 163
272 290 309 322 332 337 337 234 278 308 277 291 277 261 278 306 314 356 321 10 2 49 66 109 210 184 241 292 244 198 152 125 166 87 69 271 174 111 162 213 160 182 188 189
254 274 296 312 322 324 323 253 261 288 284 277 293 282 270 282 284 272 290 283 259 177 94 124 126 179 82 171 221 343 226 176 183 166 215 274 285 235 217 167 149 153 158 178
243 260 281 298 310 312 310 297 286 286 294 299 281 264 237 294 281 254 263 308 292 265 206 150 159 182 134 173 240 230 246 175 122 74 227 258 106 141 152 174 172 166 172 176
237 250 267 287 302 303 305 294 283 294 299 294 288 250 250 278 261 242 247 259 299 336 187 154 148 175 189 204 180 177 207 138 149 300 348 110 132 138 137 133 141 151 153 163
227 242 258 279 295 296 300 289 254 238 243 279 291 302 247 244 300 228 229 226 257 297 194 122 227 153 140 132 112 255 188 178 161 214 194 174 179 157 149 147 148 156 171 184
223 238 252 275 289 291 301 254 251 199 243 303 310 311 273 298 307 239 226 241 261 221 256 248 238 186 168 134 203 262 220 212 228 211 184 155 171 173 170 156 146 161 191 200
218 237 249 270 278 274 249 252 184 184 255 267 302 301 269 275 277 230 217 224 255 269 253 236 235 198 174 127 182 272 253 230 210 189 170 144 165 170 170 183 169 181 212 211
210 237 250 266 274 276 263 211 197 218 275 261 261 274 313 298 242 225 224 243 246 230 232 235 220 154 148 223 244 255 265 208 169 173 179 181 178 164 164 170 145 133 103 93
212 227 252 270 260 242 189 172 200 215 225 264 214 224 260 337 255 262 217 219 211 220 190 230 157 259 214 225 243 250 199 177 177 174 182 181 178 182 176 178 191 197 195 195
211 222 226 229 200 176 164 183 207 208 216 227 238 231 265 309 338 329 343 10 194 260 249 160 136 237 233 241 249 237 180 182 180 182 192 186 186 180 192 214 212 211 208 211
194 193 224 240 177 177 216 220 203 191 241 218 230 217 220 251 170 235 18 200 140 162 258 143 247 272 237 235 239 205 190 193 196 202 209 219 211 200 212 210 212 214 221 222
180 200 223 169 191 209 204 228 263 197 229 206 196 217 205 218 217 80 306 75 8 248 292 109 245 256 274 218 207 207 202 201 200 206 216 206 205 213 218 211 217 208 205 222
178 220 211 193 186 87 203 209 235 234 219 202 181 169 166 159 137 36 7 66 283 318 360 237 228 261 264 278 224 209 202 206 206 217 219 211 209 222 220 207 205 205 216 222
197 200 234 191 211 232 202 208 202 229 228 333 206 127 116 104 94 153 190 229 29 280 276 247 259 293 271 211 177 181 182 190 195 193 189 192 200 197 196 209 209 213 214 224
219 226 215 210 230 251 265 256 260 277 277 289 119 78 72 5 96 17 21 303 261 226 239 259 325 184 145 167 174 175 174 178 184 187 181 181 180 186 199 208 211 208 223 228
231 234 265 266 271 279 283 273 270 253 178 147 112 115 86 120 164 155 232 224 232 265 238 68 87 102 110 139 182 193 196 196 168 172 180 189 200 211 222 208 201 219 243 250
234 246 254 271 283 271 303 277 243 168 154 74 298 145 172 114 90 258 191 215 241 206 147 127 125 126 128 131 154 156 158 165 174 186 197 213 221 223 211 204 216 228 249 255